Regional Weather Roundup
Issued by NWS

Home | Current Version | Previous Version | Text Only | Print | Product List | Glossary Off
Versions: 1 2 3 4 5 6 7 8 9 10 11 12 13 14 15 16 17 18 19 20 21 22 23 24 25 26 27 28 29 30 31 32 33 34 35 36 37 38 39 40 41 42 43 44 45 46 47 48 49 50

000
ASUS43 KDMX 282007
RWRIA

WEATHER ROUNDUP FOR IOWA
NATIONAL WEATHER SERVICE DES MOINES IA
300 PM CDT FRI AUG 28 2015

NOTE: "FAIR" INDICATES FEW OR NO CLOUDS BELOW 12,000 FEET WITH NO
SIGNIFICANT WEATHER AND/OR OBSTRUCTIONS TO VISIBILITY.

* - THESE STATIONS ARE NOT NWS STATIONS...THUS NOT UNDER NWS
QUALITY CONTROL.  THEY ALSO DO NOT REPORT WEATHER SUCH
AS PRECIPITATION OR FOG.

IAZ001>003-012>014-020>022-031>034-043>046-282100-
   NORTHWEST IOWA

CITY           SKY/WX    TMP DP  RH WIND       PRES   REMARKS
CARROLL *      FOG       70  70 100 S6        29.84S VSB 1
CHEROKEE *     CLOUDY    64  64 100 NE8       29.87R FOG
DENISON *      CLOUDY    72  70  94 SW6       29.82S FOG
LE MARS *      CLOUDY    66  63  88 NE13G20   29.89R
ORANGE CITY *  CLOUDY    64  63  94 NE10G18   29.90R
SHELDON *      CLOUDY    63  61  94 E14G24    29.91R
SIOUX CITY     CLOUDY    69  63  81 N14       29.86R
SPENCER        CLOUDY    62  58  86 E14       29.91F
STORM LAKE *   FOG       64  64 100 E12       29.87S VSB 1
$$

IAZ055>058-069>071-079>083-090>094-282100-
   SOUTHWEST IOWA

CITY           SKY/WX    TMP DP  RH WIND       PRES   REMARKS
ATLANTIC *     CLOUDY    75  70  83 S13G22    29.83R
AUDUBON *      CLOUDY    73  68  83 S7        29.85S
CLARINDA *     CLOUDY    77  70  78 S13       29.87F
COUNCIL BLFS * CLOUDY    77  70  78 W12       29.84S
CRESTON *      PTSUNNY   75  68  78 S21G29    29.89F
HARLAN  *      CLOUDY    73 -35   1 S8        29.87R
LAMONI         LGT RAIN  74  68  81 S9G17     29.91S
RED OAK *      CLOUDY    77  72  83 S14G24    29.84F
SHENANDOAH *   CLOUDY    77  72  83 SW6       29.86S
$$

IAZ047>049-059>061-072>074-084-282100-
   CENTRAL IOWA

CITY           SKY/WX    TMP DP  RH WIND       PRES   REMARKS
AMES           CLOUDY    67  67 100 SE6       29.87F
ANKENY *       PTSUNNY   72  68  88 SE10      29.86F
CHARITON *     PTSUNNY   75  66  73 S12G24    29.90F
DES MOINES     CLOUDY    74  67  78 S16G22    29.85F
GRINNELL*      CLOUDY    70  63  78 SE18      29.91F
KNOXVILLE *    MOSUNNY   72  64  78 S10G21    29.89S
MARSHALLTOWN   LGT RAIN  65  63  93 SE14      29.89F
PELLA *        CLOUDY    73  68  83 S12       29.91S
PERRY *        CLOUDY    73  68  83 S5        29.85S
$$

IAZ004>006-015-016-023>025-035-036-282100-
   NORTH CENTRAL IOWA

CITY           SKY/WX    TMP DP  RH WIND       PRES   REMARKS
ALGONA *       FOG       61  59  94 E15       29.92F VSB 1
CLARION *      FOG       63  63 100 E14       29.91S VSB 1
ESTHERVILLE    CLOUDY    59  58  96 E18G25    29.95S FOG
FORT DODGE *   CLOUDY    63  59  88 E12       29.89S
MASON CITY     LGT RAIN  59  58  96 NE12      29.99F FOG
FOREST CITY *  DRIZZLE   57  57 100 NE12G18   29.97F
IOWA FALLS *   HVY RAIN  63  63 100 E7        29.92S
$$

IAZ007>011-017>019-026>030-037>042-050>054-066-282100-
   NORTHEAST IOWA

CITY           SKY/WX    TMP DP  RH WIND       PRES   REMARKS
CEDAR RAPIDS   CLOUDY    67  62  84 SE16G26   29.97S
CHARLES CITY * CLOUDY    61  61 100 E12       30.01S FOG
CLINTON *      CLOUDY    68  63  83 SE8       30.08S
DECORAH *      CLOUDY    59  59 100 CALM      30.03R
DUBUQUE        CLOUDY    63  61  93 SE12      30.05F
MONTICELLO *   PTSUNNY   64  63  94 E13       30.00F
OELWEIN *      LGT RAIN  63  61  94 SE12G17   30.01R
WATERLOO       HVY RAIN  62  60  93 E15       29.97F FOG
$$

IAZ064-065-067-068-078-282100-
   EAST CENTRAL IOWA

CITY           SKY/WX    TMP DP  RH WIND       PRES   REMARKS
DAVENPORT      CLOUDY    69  62  78 SE10      30.05F
IOWA CITY      CLOUDY    70  63  78 SE13G22   29.99F
MT. PLEASANT * CLOUDY    75  61  60 SE21G28   29.99F
MUSCATINE *    MOSUNNY   73  63  68 SE12G18   30.02F
QUAD CITIES    CLOUDY    71  63  75 SE7       30.05F
$$

IAZ062-063-075>077-085>089-095>099-282100-
   SOUTHEAST IOWA

CITY           SKY/WX    TMP DP  RH WIND       PRES   REMARKS
BURLINGTON     CLOUDY    71  64  78 S12       30.02F
FAIRFIELD *    MOSUNNY   72  63  73 SE15G26   29.96F
FORT MADISON * SUNNY     72  64  78 S9G16     30.02F
KEOKUK *       SUNNY     73  63  68 SE8G22    30.01F
OSKALOOSA *      N/A     73  63  68 SE16G22   29.93F
CENTERVILLE *  SUNNY     75  66  73 S13G20    29.96F
OTTUMWA        PTSUNNY   73  64  73 S14G22    29.93F
WASHINGTON *     N/A    N/A N/A N/A MISG        N/A
$$

ABBREVIATIONS USED IN REMARKS
   TC - TEMPERATURES IN CELSIUS
  WCI - WIND CHILL INDEX
   HX - HEAT INDEX
  VSB - VISIBILITY
$$




USA.gov is the U.S. government's official web portal to all federal, state and local government web resources and services.